Summary – Current weather conditions in Chulilla

Friday, 21 February 2020
Puesta del sol a las Salida del sol a las
Hora Temperatures Pressure Wind Intensidad lluvia
23:54 8.3 °C 1028 mb 0 km/h 0.00 mm
23:44 8.6 °C 1028 mb 0 km/h 0.00 mm
23:34 8.6 °C 1028 mb 0 km/h 0.00 mm
23:24 8.7 °C 1028 mb 0 km/h 0.00 mm
23:14 8.6 °C 1028 mb 0 km/h 0.00 mm
23:04 8.6 °C 1028 mb 0 km/h 0.00 mm
22:54 8.3 °C 1028 mb 0 km/h 0.00 mm
22:44 8.3 °C 1028 mb 0 km/h 0.00 mm
22:34 8.6 °C 1028 mb 0 km/h 0.00 mm
22:24 8.7 °C 1028 mb 0 km/h 0.00 mm
22:14 8.8 °C 1028 mb 0 km/h 0.00 mm
22:04 8.9 °C 1028 mb 0 km/h 0.00 mm
21:54 9.1 °C 1027 mb 0 km/h 0.00 mm
21:44 9.3 °C 1027 mb 0 km/h 0.00 mm
21:34 9.5 °C 1027 mb 0 km/h 0.00 mm
21:24 9.7 °C 1027 mb 0 km/h 0.00 mm
21:14 9.8 °C 1027 mb 0 km/h 0.00 mm
21:04 10.0 °C 1027 mb 0 km/h 0.00 mm
20:54 10.4 °C 1027 mb 0 km/h 0.00 mm
20:44 10.6 °C 1027 mb 0 km/h 0.00 mm
20:34 10.7 °C 1027 mb 0 km/h 0.00 mm
20:24 11.1 °C 1027 mb 0 km/h 0.00 mm
20:14 11.4 °C 1027 mb 0 km/h 0.00 mm
20:04 11.6 °C 1027 mb 0 km/h 0.00 mm
19:54 12.0 °C 1027 mb 0 km/h 0.00 mm
19:44 12.2 °C 1027 mb 0 km/h 0.00 mm
19:34 12.2 °C 1027 mb 0 km/h 0.00 mm
19:24 12.5 °C 1027 mb 0 km/h 0.00 mm
19:14 12.9 °C 1027 mb 0 km/h 0.00 mm
19:04 13.3 °C 1026 mb 0 km/h 0.00 mm
18:54 13.7 °C 1026 mb 0 km/h 0.00 mm
18:44 14.0 °C 1026 mb 0 km/h 0.00 mm
18:34 14.6 °C 1026 mb 0 km/h 0.00 mm
18:24 15.1 °C 1026 mb 0 km/h 0.00 mm
18:14 15.3 °C 1026 mb 0 km/h 0.00 mm
18:04 15.4 °C 1026 mb 0 km/h 0.00 mm
17:54 15.7 °C 1026 mb 0 km/h 0.00 mm
17:44 16.1 °C 1026 mb 0 km/h 0.00 mm
17:34 16.9 °C 1026 mb 0 km/h 0.00 mm
17:24 17.2 °C 1026 mb 0 km/h 0.00 mm
17:14 17.4 °C 1026 mb 0 km/h 0.00 mm
17:04 17.6 °C 1026 mb 0 km/h 0.00 mm
16:54 17.7 °C 1026 mb 0 km/h 0.00 mm
16:44 17.6 °C 1026 mb 0 km/h 0.00 mm
16:34 17.7 °C 1026 mb 0 km/h 0.00 mm
16:24 17.8 °C 1026 mb 0 km/h 0.00 mm
16:14 17.9 °C 1026 mb 0 km/h 0.00 mm
16:04 17.8 °C 1026 mb 2 km/h 0.00 mm
15:54 17.8 °C 1026 mb 0 km/h 0.00 mm
15:44 17.7 °C 1026 mb 0 km/h 0.00 mm
15:34 17.7 °C 1026 mb 0 km/h 0.00 mm
15:24 17.9 °C 1026 mb 0 km/h 0.00 mm
15:14 17.7 °C 1026 mb 2 km/h 0.00 mm
15:04 17.4 °C 1026 mb 0 km/h 0.00 mm
14:54 17.7 °C 1026 mb 11 km/h 0.00 mm
14:44 17.6 °C 1026 mb 0 km/h 0.00 mm
14:34 17.7 °C 1026 mb 0 km/h 0.00 mm
14:24 17.4 °C 1026 mb 13 km/h 0.00 mm
14:14 17.3 °C 1027 mb 0 km/h 0.00 mm
14:04 17.3 °C 1027 mb 0 km/h 0.00 mm
13:54 17.2 °C 1027 mb 0 km/h 0.00 mm
13:44 16.8 °C 1027 mb 3 km/h 0.00 mm
13:34 16.7 °C 1027 mb 5 km/h 0.00 mm
13:24 16.7 °C 1027 mb 0 km/h 0.00 mm
13:14 16.5 °C 1027 mb 2 km/h 0.00 mm
13:04 16.3 °C 1028 mb 0 km/h 0.00 mm
12:54 16.3 °C 1028 mb 0 km/h 0.00 mm
12:44 16.2 °C 1028 mb 2 km/h 0.00 mm
12:34 15.8 °C 1028 mb 0 km/h 0.00 mm
12:24 15.4 °C 1028 mb 0 km/h 0.00 mm
12:14 15.1 °C 1028 mb 0 km/h 0.00 mm
12:04 14.8 °C 1028 mb 3 km/h 0.00 mm
11:54 14.8 °C 1028 mb 0 km/h 0.00 mm
11:44 14.4 °C 1028 mb 0 km/h 0.00 mm
11:34 13.3 °C 1028 mb 0 km/h 0.00 mm
11:24 12.8 °C 1028 mb 0 km/h 0.00 mm
11:14 12.7 °C 1028 mb 0 km/h 0.00 mm
11:04 12.2 °C 1028 mb 0 km/h 0.00 mm
10:54 11.3 °C 1028 mb 0 km/h 0.00 mm
10:44 10.8 °C 1028 mb 0 km/h 0.00 mm
10:34 10.2 °C 1028 mb 0 km/h 0.00 mm
10:24 9.5 °C 1028 mb 0 km/h 0.00 mm
10:14 9.2 °C 1028 mb 2 km/h 0.00 mm
10:04 8.8 °C 1028 mb 0 km/h 0.00 mm
09:54 8.4 °C 1028 mb 5 km/h 0.00 mm
09:44 8.0 °C 1028 mb 0 km/h 0.00 mm
09:34 7.6 °C 1028 mb 0 km/h 0.00 mm
09:24 7.1 °C 1028 mb 0 km/h 0.00 mm
09:14 6.8 °C 1028 mb 8 km/h 0.00 mm
09:04 6.7 °C 1027 mb 0 km/h 0.00 mm
08:54 6.5 °C 1027 mb 5 km/h 0.00 mm
08:44 6.4 °C 1027 mb 0 km/h 0.00 mm
08:34 6.4 °C 1027 mb 0 km/h 0.00 mm
08:24 6.4 °C 1027 mb 0 km/h 0.00 mm
08:14 6.5 °C 1027 mb 8 km/h 0.00 mm
08:04 6.4 °C 1027 mb 0 km/h 0.00 mm
07:54 6.4 °C 1027 mb 0 km/h 0.00 mm
07:44 6.6 °C 1027 mb 0 km/h 0.00 mm
07:34 6.7 °C 1027 mb 0 km/h 0.00 mm
07:24 6.6 °C 1027 mb 0 km/h 0.00 mm
07:14 6.6 °C 1026 mb 0 km/h 0.00 mm
07:04 6.7 °C 1026 mb 0 km/h 0.00 mm
06:54 6.8 °C 1026 mb 0 km/h 0.00 mm
06:44 6.9 °C 1026 mb 6 km/h 0.00 mm
06:34 7.0 °C 1026 mb 0 km/h 0.00 mm
06:24 7.1 °C 1026 mb 0 km/h 0.00 mm
06:14 7.1 °C 1026 mb 0 km/h 0.00 mm
06:04 7.0 °C 1026 mb 0 km/h 0.00 mm
05:54 7.2 °C 1026 mb 0 km/h 0.00 mm
05:44 7.3 °C 1026 mb 2 km/h 0.00 mm
05:34 7.4 °C 1026 mb 0 km/h 0.00 mm
05:24 7.4 °C 1026 mb 0 km/h 0.00 mm
05:14 7.4 °C 1026 mb 0 km/h 0.00 mm
05:04 7.6 °C 1026 mb 0 km/h 0.00 mm
04:54 7.7 °C 1026 mb 0 km/h 0.00 mm
04:44 7.7 °C 1025 mb 0 km/h 0.00 mm
04:34 7.7 °C 1025 mb 0 km/h 0.00 mm
04:24 7.8 °C 1025 mb 0 km/h 0.00 mm
04:14 7.9 °C 1025 mb 0 km/h 0.00 mm
04:04 7.9 °C 1025 mb 0 km/h 0.00 mm
03:54 8.1 °C 1025 mb 0 km/h 0.00 mm
03:44 8.2 °C 1025 mb 0 km/h 0.00 mm
03:34 8.3 °C 1025 mb 0 km/h 0.00 mm
03:24 8.3 °C 1025 mb 0 km/h 0.00 mm
03:14 8.4 °C 1025 mb 0 km/h 0.00 mm
03:04 8.6 °C 1025 mb 0 km/h 0.00 mm
02:54 8.7 °C 1025 mb 0 km/h 0.00 mm
02:44 8.8 °C 1025 mb 0 km/h 0.00 mm
02:34 8.8 °C 1025 mb 0 km/h 0.00 mm
02:24 8.9 °C 1025 mb 5 km/h 0.00 mm
02:14 9.0 °C 1024 mb 0 km/h 0.00 mm
02:04 9.1 °C 1024 mb 0 km/h 0.00 mm
01:54 9.1 °C 1024 mb 0 km/h 0.00 mm
01:44 9.2 °C 1024 mb 0 km/h 0.00 mm
01:34 9.3 °C 1024 mb 0 km/h 0.00 mm
01:24 9.3 °C 1024 mb 0 km/h 0.00 mm
01:14 9.3 °C 1024 mb 0 km/h 0.00 mm
01:04 9.4 °C 1024 mb 0 km/h 0.00 mm
00:54 9.6 °C 1024 mb 0 km/h 0.00 mm
00:44 9.7 °C 1024 mb 5 km/h 0.00 mm
00:34 9.7 °C 1024 mb 10 km/h 0.00 mm
00:24 9.7 °C 1024 mb 0 km/h 0.00 mm
00:14 9.8 °C 1024 mb 0 km/h 0.00 mm
00:04 9.8 °C 1024 mb 0 km/h 0.00 mm
Dia anterior